Regional Weather Roundup
Issued by NWS Grand Forks, ND

Home | Current Version | Previous Version | Graphics & Text | Print | Product List | Glossary On
Versions: 1 2 3 4 5 6 7 8 9 10 11 12 13 14 15 16 17 18 19 20 21 22 23 24 25 26 27 28 29 30 31 32 33 34 35 36 37 38 39 40 41 42 43 44 45 46 47 48 49 50
000
ASUS43 KFGF 281031
RWRFGF
PRAIRIE TO PINES  WEATHER ROUNDUP
NATIONAL WEATHER SERVICE EASTERN NORTH DAKOTA/GRAND FORKS ND
500 AM CDT THU APR 28 2016

 **SATELLITE DATA USED TO AUGMENT SKY COVER AT AUTOMATED STATIONS**
 *****  WEATHER ACROSS EASTERN NORTH DAKOTA  *****

CITY           SKY/WX    TMP DP  RH WIND       PRES   REMARKS
GRAND FORKS    CLOUDY    40  23  50 NE8       30.06R
GRAND FRKS AFB MOCLDY    35  24  63 N6        30.07R
DEVILS LAKE    CLOUDY    39  21  48 NE13      30.07R
FARGO          CLOUDY    44  25  47 NE14      29.99S
WAHPETON ARPT  CLOUDY    41  28  60 NE6       29.99R
$$

 ***** WEATHER ACROSS CENTRAL AND WESTERN NORTH DAKOTA  *****

CITY           SKY/WX    TMP DP  RH WIND       PRES   REMARKS
BISMARCK       CLOUDY    38  36  92 SE13      30.03R
MINOT          CLOUDY    39  24  55 N7        30.08R
JAMESTOWN      CLOUDY    39  32  76 E8        30.01R
MINOT AFB      CLOUDY    38  23  55 N8        30.08R
GARRISON         N/A     38  26  62 NE7       30.04R
WILLISTON      CLOUDY    39  25  57 N8        30.09R
DICKINSON      CLOUDY    34  29  82 W3        30.00R
HETTINGER      CLOUDY    34  31  88 NE13      30.01S WCI  25
$$

 *****  OTHER AIRPORT OBSERVATIONS IN OUR AREA  *****

CITY           SKY/WX    TMP DP  RH WIND       PRES   REMARKS
WALHALLA       FAIR      36  25  64 NW6       30.14R
GRAFTON AIRPOR FAIR      37  25  60 NE9       30.11R
VALLEY CITY AR CLOUDY    39  39 100 N8        30.03S
CANDO          FAIR      36  19  51 NE10      30.12R
CAVALIER APRT  FAIR      37  25  60 N6        30.12R
GWINNER        CLOUDY    37  36  93 N6        29.98S
SHEYENNE NWR     N/A     42  26  53 NE6       29.95S
ROLLA          FAIR      34  19  55 NE10      30.12R
 ***** THE ABOVE OBSERVATIONS ARE NON NWS ARE NOT QUALITY
       CONTROLLED AND MAY MIS-REPORT RAIN FOR SNOW...
$$

  *****  WEATHER ACROSS NORTHERN MINNESOTA  *****

CITY           SKY/WX    TMP DP  RH WIND       PRES   REMARKS
FLAG ISLAND    CLOUDY    37  16  41 NE8       30.14R
WARROAD        MOCLDY    36  28  75 NE8       30.14R
ROSEAU         MOCLDY    36  27  69 E8        30.12R
HALLOCK        CLOUDY    41  12  30 E13       30.10R
THF RVR FALLS  CLOUDY    37  18  44 NE12      30.08S
BAUDETTE       CLOUDY    35  14  42 NE5       30.11R
WASKISH        MOCLDY    36  21  55 NE5       30.10R
CROOKSTON      CLOUDY    39  21  48 E10       30.07R
$$
  *****  WEATHER ACROSS CENTRAL AND WEST MINNESOTA  *****

CITY           SKY/WX    TMP DP  RH WIND       PRES   REMARKS
FOSSTON        CLOUDY    39  19  45 E8        30.05R
BEMIDJI        CLOUDY    37  17  44 NE8       30.05R
PARK RAPIDS    CLOUDY    43   9  24 E10       30.00R
ELBOW LAKE     LGT RAIN  36  29  75 NE9       29.96R
WADENA         CLOUDY    39  16  38 E9G16     29.98R
DETROIT LAKES  CLOUDY    45  10  24 E8        30.00S
MOORHEAD       CLOUDY    43  27  52 NE8       30.00S
FERGUS FALLS   CLOUDY    43  18  36 E13G18    29.97R
MORRIS MN      CLOUDY    37  34  87 NE14      29.93R
STAPLES        CLOUDY    39  12  33 E9        29.98R
$$
  *****  WEATHER ELSEWHERE ACROSS MINNESOTA  *****

CITY           SKY/WX    TMP DP  RH WIND       PRES   REMARKS
DULUTH         CLOUDY    37  17  44 E17G25    30.02R
INTRNTL FALLS  CLOUDY    36  17  46 E6        30.10R
ELY            CLOUDY    28  21  74 CALM      30.09R
CLOQUET        CLOUDY    39  10  30 E15G23    30.00S
WHEATON        CLOUDY    39  32  75 NE9G16    29.98R
BRAINERD       LGT RAIN  40  13  33 E9        29.99S
HIBBING        CLOUDY    35  12  38 NE7       30.04S
ALEXANDRIA       N/A     35  30  82 MISG      29.94R
SAINT CLOUD    CLOUDY    37  27  67 NE8       29.93R
MINNEAPOLIS    CLOUDY    41  35  79 NE9       29.89R
$$

  *****  WEATHER ACROSS SOUTH DAKOTA  *****

CITY           SKY/WX    TMP DP  RH WIND       PRES   REMARKS
SIOUX FALLS    LGT RAIN  40  37  89 NE14      29.80R
BROOKINGS      LGT RAIN  38  36  92 NE10G21   29.83R
WATERTOWN      CLOUDY    37  30  75 NE14      29.88R
HURON          CLOUDY    38  35  89 NE12      29.89R
SISSETON         N/A     38  31  76 NE12      29.94S
ABERDEEN       CLOUDY    38  34  85 NE13      29.95R
MITCHELL       CLOUDY    39  38  96 N16       29.87R
PIERRE         CLOUDY    35  33  92 NE13      29.93R
MOBRIDGE       LGT RAIN  35  33  92 NE7       29.96R
RAPID CITY     LGT SNOW  32  31  96 N14       29.96R FOG     WCI  22
$$

  *****  SOME WEATHER IN NEARBY STATES *****

CITY           SKY/WX    TMP DP  RH WIND       PRES   REMARKS
GLASGOW MT     CLOUDY    38  35  89 NW9       30.10S
GREAT FALLS MT LGT SNOW  32  31  96 NE10      30.07S FOG     WCI  24
CHEYENNE WY    CLOUDY    30  27  88 N3        29.91S
SCOTTSBLUFF NE CLOUDY    33  28  81 CALM      29.95R
OMAHA NE       CLOUDY    46  46 100 CALM      29.71R
DES MOINES IA  CLOUDY    48  42  80 SE5       29.71R
DAVENPORT IA   CLOUDY    49  47  93 E3        29.73R FOG
CHICAGO IL     CLOUDY    43  42  97 E16G23    29.81F
EAU CLAIRE WI  CLOUDY    42  22  44 NE17      29.89S
LA CROSSE WI   LGT RAIN  44  28  53 E10       29.84R
$$

  *****  SOME NATIONAL WEATHER *****

CITY           SKY/WX    TMP DP  RH WIND       PRES   REMARKS
LA GUARDIA NY  MOCLDY    48  23  37 NE14      29.99R
RALEIGH NC     MOCLDY    66  64  93 SE7       29.89S
ATLANTA GA     CLOUDY    67  64  90 SW9       29.91R
NEW ORLEANS LA CLOUDY    77  74  90 S12       29.82S
OKLAHOMA CITY  PTCLDY    53  45  74 NE9       29.87R
ALBUQUERQUE NM CLOUDY    59  26  28 SE8G33    29.80S
SALT LAKE CITY CLOUDY    48  42  80 SE6       29.67F
LOS ANGELES CA PTCLDY    57  46  66 NW6       29.77R
BOISE ID       MOCLDY    46  40  79 CALM      29.81S
SEATTLE WA     CLOUDY    53  44  71 CALM      30.07S
$$

*** WEATHER ACROSS MANITOBA...SASKATCHEWAN AND ONTARIO ***
                ***ONTARIO***

CITY           SKY/WX    TMP DP  RH WIND       PRES   REMARKS
GERALDTON      PTCLDY    27  19  74 N3        30.17S
THUNDER BAY    PTCLDY    34  23  64 NE8       30.13S
SIOUX LOOKOUT  PTCLDY    30  12  47 E5        30.17S
TORONTO        MOCLDY    34  21  60 NW8       30.06R
BIG TROUT LK   CLOUDY    28  16  59 N6        30.29R WCI  22
PICKLE LAKE    NOT AVBL
DRYDEN         CLEAR     32  16  51 NE7       30.15S
KENORA         PTCLDY    34  10  37 NE8       30.15R
$$
                *** MANITOBA***

CITY           SKY/WX    TMP DP  RH WIND       PRES   REMARKS
BRANDON        PTCLDY    37  19  48 NE13      30.17R
DAUPHIN        CLEAR     27  19  74 W3        30.24R
ISLAND LAKE    CLEAR     27  12  54 N3        30.35R
PILOT MOUND      N/A     36  19  51 NE10        N/A
THE PAS        CLEAR     32  19  59 SE5       30.31S
THOMPSON       PTCLDY    32  18  55 E3        30.39R
WINNIPEG       MOCLDY    36  19  51 NE9       30.18R
LYNN LAKE      CLOUDY    37  23  56 S8        30.29R
CHURCHILL      CLOUDY    23  19  86 NE7       30.47S WCI  15
GILLAM         PTCLDY    25  12  58 NE3       30.42R
$$
                ***SASKATCHEWAN***

CITY           SKY/WX    TMP DP  RH WIND       PRES   REMARKS
ESTEVAN        CLOUDY    34  21  60 NE9       30.13R
KINDERSLEY     CLOUDY    39  36  87 NE7       30.16S
LLOYDMINSTER   CLEAR     36  25  64 SE7       30.16S
PRINCE ALBERT  PTCLDY    30  25  80 NE3       30.23S
REGINA         CLOUDY    39  21  48 E8        30.19R
YORKTON        CLEAR     28  25  86 N7        30.23R WCI  21
N. BATTLEFORD  CLEAR     36  23  60 E8        30.21R
LA RONGE       PTCLDY    37  21  52 SE3       30.23R
SASKATOON        N/A     41  25  52 SE6       30.22R
SWIFT CURRENT  MOCLDY    39  27  60 E8        30.13S
$$
NOTE: THESE ARE AUTOMATED STATIONS WITH LIMITED QUALITY CONTROL
      "FAIR" INDICATES FEW OR NO CLOUDS BELOW 12,000 FEET WITH NO
      SIGNIFICANT WEATHER AND/OR OBSTRUCTIONS TO VISIBILITY.
      SKY/WX - SKY CONDITION AND SIGNIFICANT WEATHER.
      TMP - AIR TEMPERATURE.    DP   - DEWPOINT TEMPERATURE.
      RH  - RELATIVE HUMIDITY.  PRES - PRESSURE.
      HX  - HEAT INDEX.         WCI  - WIND CHILL INDEX.
$




USA.gov is the U.S. government's official web portal to all federal, state and local government web resources and services.